Theta_e
304 304 303 303 305 310 313 313 314 315 314 314 314 315 316 315 314 313 314 316 317 316 315 315 314 315 317 319 324 325 326 328 323 322 322 322 323 325 324 325 325 321 323 321 319 325 335 330 330 331 331 335 334 333
304 304 304 303 304 306 310 312 314 315 314 313 314 316 316 314 313 312 313 316 316 316 315 315 316 315 314 317 320 323 325 326 327 323 322 323 324 325 326 327 325 325 323 324 323 325 325 329 331 333 334 334 332 332
304 305 304 303 303 305 307 310 313 314 314 314 314 315 316 314 313 312 313 314 314 316 315 315 316 315 317 318 314 320 323 326 325 326 325 322 324 323 326 327 327 324 326 325 326 329 329 330 329 330 335 334 334 333
306 307 307 307 304 303 305 308 310 312 312 311 313 314 315 314 313 312 312 313 315 314 315 315 315 314 315 317 320 313 320 325 322 325 325 324 326 326 325 326 325 325 325 325 324 325 328 329 328 331 334 334 335 332
305 305 305 305 306 304 303 305 309 310 311 308 311 313 314 314 313 312 312 313 313 313 315 315 314 314 316 318 321 319 316 320 321 325 324 325 326 324 322 323 324 327 326 323 322 325 325 327 327 330 328 326 325 325
303 303 303 303 305 304 304 303 304 308 310 307 311 312 314 314 313 312 314 316 315 315 316 316 315 314 317 318 321 321 319 318 323 325 324 325 327 322 322 324 325 326 327 326 327 327 327 326 326 327 326 326 326 325
302 302 302 302 304 305 306 305 304 305 308 310 308 309 313 313 312 311 314 316 315 314 315 315 315 320 324 320 322 320 319 318 323 325 325 325 326 326 323 325 326 326 326 327 327 328 324 324 325 326 327 327 326 326
301 301 302 303 303 305 306 307 305 305 307 309 309 312 313 312 311 312 312 313 313 314 314 316 317 321 323 325 322 321 319 319 322 324 325 328 325 323 324 324 326 326 326 327 326 327 326 325 325 326 326 327 327 327
301 302 303 303 303 304 304 306 307 306 307 308 310 311 311 311 311 313 315 314 314 313 315 317 321 324 324 325 325 322 321 319 322 321 321 324 323 318 321 325 326 327 326 325 325 326 326 326 326 327 325 327 328 326
300 302 302 303 303 303 304 305 306 307 307 309 310 311 312 313 312 314 314 314 313 314 314 315 316 319 324 324 326 323 323 320 322 321 323 324 323 325 325 325 325 324 324 324 325 324 324 325 326 326 326 326 327 328
300 301 303 303 303 303 304 305 307 307 308 309 310 312 313 313 313 314 316 315 315 316 315 315 316 316 325 324 325 325 326 324 326 323 324 324 324 326 326 326 325 325 325 327 324 323 324 325 325 325 326 326 326 327
300 301 303 304 304 304 305 306 307 307 309 311 312 311 311 313 312 315 318 318 318 319 320 319 319 317 322 322 324 324 325 324 327 325 326 325 323 326 326 326 326 325 324 326 327 326 325 324 324 325 325 325 326 327
300 301 303 303 303 304 305 306 308 309 309 311 311 310 312 313 314 318 319 321 321 322 322 322 322 321 321 319 323 324 326 328 325 325 329 325 324 326 325 326 326 325 325 326 327 325 325 325 325 324 325 325 324 325
299 302 303 303 303 304 306 308 309 309 309 311 311 309 315 316 316 318 319 322 321 322 322 322 324 324 321 322 323 325 325 326 329 328 328 327 333 328 326 325 325 328 328 325 327 325 324 326 327 327 326 325 326 328
301 302 303 302 303 305 305 307 309 309 310 311 312 312 315 314 315 315 319 319 320 320 321 321 324 323 325 325 324 324 326 327 325 327 327 328 333 333 327 329 329 327 328 326 325 326 326 326 325 325 325 327 327 327
302 302 304 306 304 305 305 307 309 308 310 311 311 314 314 314 317 318 318 318 318 320 320 323 321 322 325 324 326 326 326 326 324 324 328 325 326 331 332 329 327 328 328 326 325 324 325 326 326 325 325 326 327 327
302 303 306 306 305 305 306 308 308 308 310 312 312 312 313 314 315 317 318 318 318 318 322 322 323 324 321 323 324 323 322 323 327 325 328 328 326 325 330 330 330 328 326 327 326 326 327 325 327 326 325 327 327 326
303 305 307 306 306 306 307 308 309 310 311 312 313 313 315 316 316 316 317 318 319 320 322 323 322 322 325 325 325 323 327 326 323 323 324 324 325 325 329 330 329 328 327 327 326 326 327 328 326 326 325 326 324 323
303 306 306 306 307 308 308 308 308 311 312 312 313 314 314 315 315 316 316 317 318 319 321 320 322 322 321 323 324 324 324 324 323 322 322 322 322 323 325 329 331 330 328 326 327 326 327 327 326 325 325 325 324 324
302 305 307 306 307 309 311 310 310 311 313 314 314 314 315 315 315 316 316 316 317 319 320 320 320 321 322 323 321 323 325 324 323 323 323 321 321 323 324 327 329 329 330 328 328 327 326 325 324 324 325 325 325 324
302 305 307 308 308 308 309 310 312 313 314 315 315 316 316 317 317 316 317 316 318 320 318 320 320 319 318 321 324 322 322 323 323 322 321 320 321 326 326 326 327 328 330 328 325 324 324 324 325 325 325 325 325 324
305 307 307 307 308 309 309 309 310 312 314 315 315 316 317 318 318 318 317 317 317 317 317 318 319 319 319 321 322 322 322 321 321 321 321 324 325 325 324 323 324 326 328 329 327 326 327 326 326 327 327 327 326 326
308 308 308 308 308 309 310 310 312 314 315 316 317 318 317 318 319 319 318 319 318 317 317 317 318 319 319 320 319 319 322 322 321 321 324 325 324 324 323 323 323 326 327 327 327 327 327 327 326 326 325 324 325 322
307 307 307 309 309 309 311 313 314 315 316 317 318 319 319 319 320 320 319 320 320 320 320 320 319 319 318 318 318 319 323 323 322 324 324 325 325 325 324 322 324 325 326 326 326 325 325 323 324 323 324 325 324 325
308 307 309 308 311 312 315 315 315 316 317 317 318 318 318 321 320 321 322 323 323 322 322 322 320 319 319 321 322 322 321 320 323 324 324 324 325 325 324 324 323 323 322 323 321 320 320 322 321 323 322 322 322 320
308 309 309 312 312 313 314 317 317 316 315 317 317 319 320 320 323 322 320 324 323 322 322 322 323 323 322 322 322 323 323 324 324 324 323 322 324 324 323 322 322 321 320 324 323 323 322 322 321 318 317 318 316 316
308 311 312 311 313 314 315 316 317 316 317 318 319 320 322 324 325 320 323 321 322 324 324 323 323 322 323 323 323 324 324 324 324 324 323 322 323 322 322 320 321 322 322 322 323 322 320 319 318 316 316 316 315 315
310 312 314 314 315 315 316 316 317 319 319 317 317 323 320 326 324 322 324 324 324 324 323 323 324 324 324 323 323 323 323 323 323 323 323 323 323 322 321 322 321 320 319 318 317 316 316 317 317 317 316 315 314 314
312 313 313 314 315 316 317 317 317 318 316 315 318 324 323 323 324 325 320 322 322 324 322 321 324 323 323 324 324 323 323 323 323 322 321 320 322 321 322 320 318 317 316 316 316 317 316 315 314 314 315 315 315 315
312 313 314 315 317 317 317 317 317 317 318 319 320 321 323 322 322 323 324 321 322 324 324 323 321 321 321 321 322 323 322 321 321 320 319 319 319 317 317 316 316 316 316 316 314 315 315 314 315 316 316 316 316 315
315 315 315 315 316 315 315 317 317 317 318 319 320 322 321 321 321 320 322 322 321 322 323 323 324 325 323 322 321 321 322 321 321 320 321 317 315 316 317 316 315 314 315 315 314 312 314 315 314 315 315 315 315 315
315 315 315 316 317 318 319 319 320 321 321 321 322 321 322 322 322 322 321 322 323 324 324 323 318 320 321 322 323 320 317 317 317 317 317 318 316 317 317 317 317 315 315 315 316 316 316 316 315 315 315 314 314 312
315 315 315 316 318 320 321 322 323 322 322 322 321 321 322 320 321 321 319 319 316 315 315 314 314 315 317 317 316 315 316 317 317 316 316 316 316 317 317 317 317 317 316 316 316 316 315 315 315 314 313 312 310 309
Wind_Speed
15 15 13 13 12 12 11 11 10 10 9 10 12 11 10 9 9 8 3 8 7 7 25 28 20 16 13 8 3 7 7 6 5 3 2 3 3 3 4 3 6 4 5 3 3 4 3 4 3 6 6 13 24 19
14 13 13 12 12 12 11 10 11 9 8 8 10 12 11 9 8 9 8 10 10 15 22 33 38 37 33 24 8 4 4 2 6 2 2 1 3 2 4 2 4 4 3 4 6 6 4 3 12 12 25 29 28 26
12 11 11 11 11 11 11 9 8 7 8 7 11 10 10 9 9 10 12 9 10 14 28 16 19 12 12 19 31 9 6 4 3 1 4 1 2 3 3 2 2 4 5 3 3 4 4 8 14 16 23 29 25 20
12 13 13 13 12 12 10 9 9 11 9 9 8 7 9 9 9 9 12 7 10 8 6 15 15 27 14 12 17 35 30 12 18 15 3 2 2 2 4 4 4 4 4 2 2 1 11 13 13 19 25 24 21 16
13 13 13 12 12 12 11 10 9 10 9 9 6 6 8 5 7 10 12 9 10 8 5 19 37 12 9 15 18 21 32 30 17 5 2 3 3 4 0 2 1 7 6 4 5 8 7 12 11 27 32 33 29 22
13 13 12 12 11 10 11 11 11 10 10 7 7 8 7 9 8 9 2 1 1 9 6 5 13 15 9 7 18 21 26 23 11 2 5 3 3 4 4 3 4 8 11 5 5 13 10 12 12 22 32 29 26 22
13 13 13 12 11 10 9 9 11 10 10 8 6 8 8 8 9 6 3 1 2 3 4 6 7 8 13 9 7 21 25 21 10 12 4 4 5 2 3 3 8 11 8 8 10 16 10 11 16 14 26 25 23 22
12 12 14 12 10 9 11 9 8 7 7 6 8 7 7 10 13 10 7 10 13 4 5 3 5 7 10 3 7 14 13 18 10 7 4 2 3 5 1 6 15 11 5 10 15 20 14 14 13 21 17 29 29 28
11 11 11 8 8 9 8 9 9 7 8 8 8 8 10 8 4 3 7 7 11 6 4 4 3 3 9 6 4 7 11 3 5 3 6 8 1 3 8 16 16 15 12 9 17 18 15 14 18 23 21 25 32 32
10 10 8 7 8 8 7 7 5 6 6 5 5 2 3 2 2 5 0 7 9 6 7 5 6 4 3 5 4 5 2 4 3 5 9 4 4 10 18 15 11 15 21 22 15 17 14 20 25 22 23 24 31 30
10 9 7 7 9 8 6 5 5 5 3 3 2 3 4 5 5 3 4 6 7 4 8 10 16 4 2 2 2 6 2 1 3 4 5 4 4 8 22 22 18 19 14 17 18 17 15 17 17 15 22 30 32 31
10 9 7 9 9 6 5 7 6 7 5 3 4 5 4 3 3 3 3 4 5 4 7 5 10 15 3 1 2 3 1 3 2 6 1 2 4 15 20 23 25 21 18 21 17 18 14 15 19 16 15 16 21 27
10 9 7 9 8 5 8 10 6 9 7 4 2 2 3 4 3 4 4 3 2 5 8 16 3 9 3 4 5 2 3 1 11 1 2 4 7 19 18 13 20 25 23 22 18 19 15 15 22 22 20 19 17 16
10 8 8 9 9 8 9 5 6 8 5 1 2 3 3 3 5 4 3 1 10 9 17 17 8 6 5 3 2 2 3 1 3 3 4 2 7 12 12 21 22 18 20 26 24 20 18 17 16 15 16 17 16 23
7 7 9 10 10 10 12 9 6 8 4 3 3 4 5 10 9 16 11 10 10 8 21 15 7 5 3 4 3 2 3 4 4 3 3 4 13 2 4 9 21 19 22 22 25 16 21 18 14 15 14 13 17 21
5 7 5 5 9 10 12 10 8 8 2 4 6 4 12 7 8 6 8 9 12 11 17 4 2 2 3 1 5 6 3 5 3 3 3 2 8 16 11 4 11 15 21 21 20 22 18 18 23 22 19 14 16 19
4 3 2 1 9 11 13 7 6 4 4 4 8 14 21 17 14 15 12 15 11 5 2 2 3 2 2 2 2 1 3 3 4 7 6 8 7 10 12 5 5 13 16 16 19 17 17 22 25 26 21 19 20 17
8 2 1 3 9 11 11 10 4 6 7 11 7 18 14 18 15 10 10 8 6 2 3 3 1 1 0 1 3 3 2 11 8 7 5 2 2 7 5 7 4 6 9 16 16 15 16 24 29 25 22 20 16 13
10 4 2 11 10 7 6 6 5 4 8 13 18 24 25 23 22 21 17 10 5 6 10 5 1 2 2 3 7 10 4 8 7 6 8 5 6 8 9 2 6 4 8 9 11 14 18 29 25 22 21 20 17 16
10 11 4 15 15 3 4 4 7 6 6 5 12 19 21 19 20 18 21 19 20 12 5 3 3 1 4 9 10 10 7 4 1 3 6 10 9 4 7 4 5 2 4 14 15 19 22 20 18 18 18 16 15 18
9 5 8 8 12 7 3 3 6 7 8 7 11 15 9 13 15 15 13 13 12 10 6 15 14 13 13 8 4 5 8 7 6 4 8 13 5 11 13 10 3 3 4 12 17 17 16 17 17 16 16 16 19 20
7 11 10 10 4 5 7 9 7 7 6 9 13 13 6 5 10 15 16 14 13 18 14 15 18 18 15 9 6 5 6 7 8 5 3 6 9 9 8 13 14 10 8 12 12 13 12 13 15 12 13 15 13 9
7 9 2 7 4 5 6 7 6 5 3 4 3 3 4 4 4 5 4 7 14 26 27 26 21 15 15 13 11 10 11 11 8 5 3 10 11 9 8 3 12 5 6 8 13 10 13 11 13 11 10 11 16 6
4 7 3 4 10 4 5 5 7 5 4 3 3 3 3 4 2 2 3 5 17 16 14 19 24 20 18 18 19 15 16 11 10 7 5 4 6 7 9 8 10 9 13 17 17 19 15 6 5 4 3 4 9 13
3 5 5 5 6 5 4 4 4 3 3 2 3 4 3 2 2 3 3 3 4 6 5 7 12 18 20 17 15 15 19 17 16 12 8 5 8 11 11 10 11 8 8 6 15 11 18 18 14 9 11 15 17 13
4 6 7 6 4 4 3 2 1 2 2 3 3 5 3 1 3 3 2 3 1 2 6 9 12 14 16 17 15 16 17 18 18 15 11 6 6 10 9 4 10 9 10 10 15 15 16 19 17 13 13 14 10 12
3 5 10 9 6 4 4 5 3 1 3 3 3 3 3 3 4 4 2 2 2 2 1 1 3 9 14 17 17 17 15 16 18 18 15 9 7 8 11 9 14 16 14 15 16 17 16 14 12 14 16 12 9 8
6 5 4 3 7 8 3 2 2 3 1 4 6 3 3 3 0 4 5 3 5 8 10 7 7 9 9 9 10 11 13 14 16 16 15 17 18 14 10 12 13 14 14 16 13 14 12 14 16 15 13 9 7 4
6 7 5 5 4 3 4 3 2 1 3 4 3 2 4 5 8 10 9 3 4 10 12 14 13 13 16 15 15 17 21 22 23 22 19 17 18 19 19 17 19 18 12 14 14 14 11 9 12 8 6 4 5 10
7 10 4 2 1 3 4 6 4 5 9 9 7 8 6 5 8 5 8 8 10 12 12 13 14 14 14 14 16 19 19 17 17 21 21 20 21 23 22 19 17 13 12 11 10 12 11 12 12 9 7 7 6 8
4 3 1 1 4 9 12 8 8 6 9 17 15 2 5 7 15 14 12 12 11 10 12 12 10 7 11 15 18 20 16 11 11 14 13 14 18 23 20 16 13 15 15 12 12 14 16 10 7 6 7 9 10 8
3 1 1 2 4 4 6 4 4 4 3 2 5 10 1 1 2 4 8 6 4 5 4 4 12 11 14 17 14 16 17 15 11 11 13 15 13 13 13 11 14 14 14 12 8 9 8 13 11 10 11 10 9 9
7 11 6 5 3 3 3 3 4 2 2 2 2 2 5 1 3 8 15 20 23 23 21 18 16 17 18 20 19 17 16 14 16 17 17 15 16 12 8 10 16 20 16 14 13 11 13 14 18 17 16 14 14 12
Wind_Direction
299 301 302 299 296 303 306 303 306 302 294 292 284 284 283 281 283 286 275 241 251 267 283 283 272 260 278 253 193 299 321 344 336 11 129 224 119 192 102 159 124 144 147 190 94 92 240 212 340 136 192 139 169 189
299 300 299 297 296 296 295 299 300 285 292 304 299 291 270 271 279 285 267 243 263 265 265 287 284 277 260 252 276 276 272 192 271 45 357 62 72 60 148 152 312 57 182 183 159 206 236 129 110 124 155 157 175 188
301 303 302 300 297 295 290 285 285 278 287 313 295 288 269 265 273 281 288 284 296 288 301 283 300 300 287 259 239 236 238 250 123 218 289 168 89 117 119 214 118 26 21 87 79 321 121 113 98 151 170 169 172 178
299 302 301 296 293 291 286 277 263 274 281 284 333 304 264 264 274 287 291 282 272 285 278 283 269 293 259 254 234 220 224 254 306 326 173 130 19 127 191 166 146 172 77 80 355 346 99 141 130 136 155 154 170 174
297 300 299 303 289 284 280 275 264 258 274 282 286 296 305 288 291 296 295 295 261 244 282 292 307 254 219 224 229 219 227 243 272 306 332 194 187 112 227 91 209 170 154 144 212 203 160 178 129 160 149 152 153 147
296 297 298 299 291 281 283 273 266 256 254 284 303 284 297 304 310 316 292 283 315 218 304 303 310 298 257 240 222 221 217 228 233 101 275 253 197 163 121 177 254 179 184 207 163 200 179 166 164 164 164 167 171 173
298 300 298 294 285 272 276 281 273 262 262 259 284 317 280 291 279 261 256 290 250 289 265 285 288 289 344 211 233 211 211 207 207 210 209 290 269 357 112 143 206 176 183 260 269 205 202 202 206 195 180 178 180 179
299 303 305 295 275 279 266 271 278 266 259 256 270 282 297 295 293 288 281 257 247 222 255 280 276 292 358 343 185 196 183 206 221 202 152 186 303 23 124 200 173 171 132 203 202 204 214 220 181 185 174 183 173 170
295 298 308 292 283 288 285 271 264 268 261 275 268 281 296 277 268 326 311 241 215 214 276 264 279 276 342 347 318 186 161 127 209 160 187 168 146 203 213 183 190 194 198 199 204 207 229 230 187 188 192 185 180 177
293 294 300 287 280 285 266 265 260 249 267 257 271 248 260 209 300 299 172 173 200 216 228 249 250 266 323 19 318 337 120 161 153 230 199 163 225 223 201 202 224 235 228 230 230 232 231 233 213 214 219 205 196 191
291 286 289 279 284 280 260 242 228 230 225 257 249 235 257 294 279 219 220 199 191 234 220 234 222 235 304 135 252 24 276 14 139 247 166 203 221 205 219 222 244 241 222 205 208 237 240 216 200 219 205 207 205 200
286 276 266 278 289 271 227 207 213 203 192 273 270 288 269 239 222 252 214 199 212 237 205 211 222 198 201 130 112 334 46 20 278 318 34 275 246 198 206 224 231 227 246 227 228 238 233 228 209 198 197 188 194 212
276 265 256 275 278 244 214 216 229 224 227 284 249 272 227 198 243 229 213 231 261 350 4 343 300 154 111 62 50 51 64 324 325 330 247 230 227 206 218 239 236 241 235 226 225 229 217 214 210 210 213 210 218 231
263 247 256 262 268 226 204 212 204 213 208 266 221 279 226 206 245 213 304 274 293 296 320 328 257 162 138 79 98 86 164 70 244 224 243 261 346 251 234 237 236 238 217 221 220 217 211 191 181 190 206 212 216 197
247 254 258 269 263 213 204 203 211 192 183 258 238 244 232 235 269 292 308 340 339 325 334 333 289 213 119 127 187 181 124 232 229 232 230 297 20 67 226 196 203 195 190 196 203 196 192 188 195 193 194 191 190 192
244 270 276 278 218 203 199 202 209 181 232 234 237 260 262 269 279 303 311 327 331 311 335 223 290 26 90 240 188 203 185 210 233 219 208 1 12 22 47 158 174 190 202 205 204 211 206 199 198 195 199 195 192 185
235 233 317 328 189 184 184 190 180 201 248 229 243 242 251 274 272 275 297 313 315 323 284 2 318 215 156 166 218 185 236 249 208 115 110 71 43 359 308 33 188 212 200 195 196 209 223 213 200 194 189 183 182 181
211 194 103 196 178 161 194 199 224 224 235 244 251 262 255 260 252 264 281 310 277 334 336 263 260 35 360 345 8 319 35 80 88 75 77 76 35 5 2 18 37 165 195 189 194 207 210 202 189 187 187 184 185 189
221 217 217 184 190 182 199 209 232 273 253 257 263 267 273 278 275 273 273 267 242 263 301 297 290 233 240 121 118 292 178 141 118 63 33 355 334 343 356 292 26 111 186 196 208 204 201 184 181 184 190 188 188 198
233 225 251 195 202 258 209 214 203 242 266 261 265 264 270 272 273 274 271 266 245 246 223 218 217 135 13 323 196 216 187 157 164 286 299 345 325 333 5 311 299 39 172 175 171 168 172 177 182 186 193 202 215 222
229 229 197 196 210 251 281 271 239 238 269 264 279 293 283 277 272 264 253 257 243 217 214 226 249 273 298 314 241 211 208 222 240 279 304 310 302 50 31 8 304 236 251 191 175 175 183 188 187 194 209 214 218 226
189 163 186 204 218 224 255 238 242 284 272 260 283 263 245 258 254 251 247 245 250 249 243 247 248 249 258 231 228 279 265 273 270 261 268 346 344 11 25 22 10 340 277 211 176 180 192 182 170 172 201 202 182 159
160 172 149 177 227 231 257 234 234 244 246 257 280 257 240 227 237 243 222 232 245 248 246 244 241 240 234 225 245 268 239 255 230 237 312 334 340 356 355 295 295 311 250 172 176 130 91 122 144 160 131 146 164 202
143 169 216 226 206 253 248 227 219 245 244 249 240 255 254 219 222 251 248 239 252 260 253 244 235 230 234 247 243 242 213 210 211 228 262 249 179 124 120 145 172 142 139 134 153 178 198 285 303 213 236 178 163 178
189 223 225 243 216 235 235 235 212 207 256 296 281 265 271 229 215 228 232 281 242 223 231 222 221 225 233 239 239 220 211 220 219 218 210 184 167 146 120 118 153 131 107 158 178 207 190 231 228 169 146 158 160 162
215 212 202 216 219 214 245 268 249 245 277 266 263 292 291 233 250 266 259 333 146 267 261 242 227 221 222 227 223 211 208 206 207 212 214 222 216 209 170 123 124 130 131 129 148 163 168 159 150 155 169 166 139 122
237 237 219 231 250 264 273 257 273 208 263 264 323 317 255 230 208 247 265 300 252 202 218 196 211 227 233 232 228 224 214 212 208 211 215 218 208 163 170 167 140 128 140 148 153 151 151 153 152 132 129 119 115 105
251 273 210 249 218 244 245 260 241 240 250 29 341 305 312 347 355 16 26 29 96 83 94 88 105 117 123 132 153 169 179 187 185 180 180 177 164 170 159 152 148 140 141 145 147 147 144 137 140 136 142 134 114 143
247 244 266 272 247 223 230 231 264 77 16 299 238 269 307 343 31 60 53 90 90 122 88 98 108 123 121 118 118 124 129 137 149 157 161 159 153 158 162 156 148 143 149 150 156 152 147 139 129 127 123 137 174 147
240 236 224 262 267 241 226 219 276 314 313 285 293 305 323 41 43 114 123 93 108 110 100 95 103 117 115 107 127 139 138 137 139 136 138 142 147 147 146 152 161 166 164 164 164 154 144 140 142 141 124 122 153 167
183 133 39 252 252 255 271 280 272 265 265 280 300 299 120 62 85 83 85 97 103 102 90 84 97 115 125 126 127 132 137 140 173 176 159 158 138 149 167 174 172 180 179 156 138 154 164 171 188 190 167 152 145 151
99 47 212 266 269 283 306 246 234 211 223 213 134 148 212 319 164 189 338 355 123 120 113 146 131 132 144 138 141 137 118 106 139 154 164 184 176 164 165 185 188 186 185 180 169 167 192 202 176 172 162 165 172 175
200 221 246 278 271 261 210 211 185 110 69 107 121 176 199 46 44 52 75 128 129 124 121 115 110 113 123 134 139 132 122 113 110 111 125 136 136 149 155 163 183 199 195 193 195 176 160 158 160 168 174 172 163 158